Location: Brede
(50.9167°N, 0.6000°E)
Time: 08:23:19
(UTC+00:00)

Altair - Pass Details

Date: 31 July 2021
Orbit: 1501 x 1682 km, 47.2° (Epoch: 18 September)

Event Time Altitude Azimuth Distance (km) Brightness Sun altitude
Exits shadow 00:26:33 20° 147° (SSE) 2,988 8.6 -20.7°
Maximum altitude 00:28:21 21° 132° (SE) 2,908 8.6 -20.6°
Drops below altitude 10° 00:34:45 10° 88° (E) 3,676 9.6 -20.5°
Sets 00:38:39 0° 74° (ENE) 4,647 10.4 -20.4°
